Regional Weather Roundup
Issued by NWS Sioux Falls, SD

Home | Current Version | Previous Version | Graphics & Text | Print | Product List | Glossary On
Versions: 1 2 3 4 5 6 7 8 9 10 11 12 13 14 15 16 17 18 19 20 21 22 23 24 25 26 27 28 29 30 31 32 33 34 35 36 37 38 39 40 41 42 43 44 45 46 47 48 49 50
000
ASUS43 KFSD 020302
RWRFSD

WEATHER ROUNDUP FOR SE SOUTH DAKOTA/SW MINNESOTA/NW IOWA
NATIONAL WEATHER SERVICE SIOUX FALLS SD
1000 PM CDT WED OCT 01 2014

NOTE: "FAIR" INDICATES FEW OR NO CLOUDS BELOW 12,000 FEET WITH NO
SIGNIFICANT WEATHER AND OR OBSTRUCTIONS TO VISIBILITY.


SDZ038>040-050-052>070-020400-
SOUTHEAST SOUTH DAKOTA

CITY           SKY/WX    TMP DP  RH WIND       PRES   REMARKS
CHAMBERLAIN    MOCLDY    57  47  68 N12       29.87R
HURON          PTCLDY    53  47  79 N5        29.85R
MADISON        FAIR      55  54  94 N9        29.84R
MITCHELL       CLEAR     60  48  64 N12       29.85R
SIOUX FALLS    PTCLDY    58  53  84 CALM      29.81S
WINNER         MOCLDY    58  47  66 N13       29.89R
YANKTON        CLEAR     57  52  82 NW9       29.81S
$$

MNZ071-072-080-081-089-090-097-098-020400-
SOUTHWEST MINNESOTA

CITY           SKY/WX    TMP DP  RH WIND       PRES   REMARKS
FAIRMONT       MOCLDY    61  55  82 CALM      29.82R
JACKSON        MOCLDY    59  55  88 E3        29.82R
LUVERNE        PTCLDY    59  50  72 N3        29.82R
MARSHALL       CLEAR     54  50  87 W8        29.82R
MONTEVIDEO     PTCLDY    59  55  88 N6        29.83R
PIPESTONE      PTCLDY    59  52  77 CALM      29.83R
REDWOOD FALLS  PTCLDY    56  55  97 CALM      29.80R
TRACY          PTCLDY    58  56  94 NW5       29.82R
WINDOM         PTCLDY    59  57  94 NE3       29.82R
WORTHINGTON    PTCLDY    57  55  94 CALM      29.83R
$$

IAZ001>003-012>014-020>022-031-032-NEZ013-014-SDZ071-020400-
NORTHWEST IOWA

CITY           SKY/WX    TMP DP  RH WIND       PRES   REMARKS
DENISON        CLEAR     63  63 100 SE3       29.79R
ESTHERVILLE    TSTM      62  59  90 NE5       29.81S
LE MARS        MOCLDY    59  57  94 CALM      29.81R
ORANGE CITY    MOCLDY    66  54  63 N7        29.81R
SHELDON        PTCLDY    57  55  94 CALM      29.80S
SIOUX CITY     CLEAR     62  60  93 CALM      29.80R
SPENCER        CLOUDY    63  59  87 NE6       29.81R
STORM LAKE     CLEAR     61  59  94 SE6       29.81S
$$

ABBREVIATIONS USED IN REMARKS
   TC - TEMPERATURE IN CELSIUS
  WCI - WIND CHILL INDEX
   HX - HEAT INDEX
  VSB - VISIBILITY



USA.gov is the U.S. government's official web portal to all federal, state and local government web resources and services.